Rantoul, IL

10:22 AM CST on December 06, 2016 (GMT -0600)
Rantoul

Weather History for KTIP - June, 2014

Change the Weather History Date:

Tuesday, June 17, 2014

  Actual Average (KCMI) Record (KCMI)
Temperature  
Mean Temperature 82 °F 72 °F  
Max Temperature 91 °F 84 °F 93 °F (2006)
Min Temperature 75 °F 61 °F 48 °F (1999)
Degree Days  
Heating Degree Days 0 0  
Month to date heating degree days 14  
Since 1 June heating degree days 14  
Since 1 July heating degree days 5820  
Cooling Degree Days 18 8  
Month to date cooling degree days 109  
Year to date cooling degree days 201  
Since 1 June cooling degree days 109  
Growing Degree Days 32 (Base 50)    
Moisture  
Dew Point 69 °F    
Average Humidity 62    
Maximum Humidity 75    
Minimum Humidity 48    
Precipitation  
Precipitation 0.00 in 0.13 in 0.22 in (2012)
Month to date precipitation 2.61  
Year to date precipitation 17.77  
Sea Level Pressure  
Sea Level Pressure 29.96 in    
Wind  
Wind Speed 14 mph (SSW)    
Max Wind Speed 26 mph    
Max Gust Speed 36 mph    
Visibility 10 miles    
Events      
T = Trace of Precipitation, MM = Missing Value Source: NWS Daily Summary

Daily Weather History Graph

Daily Weather History Graph

Search for Another Location

Airport or City:

Trip Planner

Search our weather history database for the weather conditions in past years. The results will help you decide how hot, cold, wet, or windy it might be!

Date:

Astronomy

Jun. 17, 2014 Rise Set
Actual Time 5:22 AM CDT 8:24 PM CDT
Civil Twilight 4:49 AM CDT 8:57 PM CDT
Nautical Twilight 4:07 AM CDT 9:39 PM CDT
Astronomical Twilight 3:17 AM CDT 10:29 PM CDT
Moon 11:53 PM CDT (6/17) 10:37 AM CDT (6/17)
Length of Visible Light 16h 08m
Length of Day
15h 02m
Waning Gibbous, 73% of the Moon is Illuminated
Jun 17
Waning Gibbous
Jun 19
Last Quarter
Jun 27
New
Jul 5
First Quarter
Jul 12
Full

Hourly Weather History & Observations

Time (CDT) Temp. Heat Index Dew Point Humidity Pressure Visibility Wind Dir Wind Speed Gust Speed Precip Events Conditions
12:15 AM 78.3 °F - 68.0 °F 71% 29.94 in 10.0 mi South 16.1 mph - N/A   Clear
12:35 AM 77.5 °F - 68.0 °F 72% 29.93 in 10.0 mi South 13.8 mph - N/A   Clear
12:55 AM 77.2 °F - 68.0 °F 73% 29.93 in 10.0 mi South 13.8 mph - N/A   Clear
1:15 AM 77.0 °F - 67.6 °F 73% 29.94 in 10.0 mi South 12.7 mph - N/A   Clear
1:35 AM 76.6 °F - 67.6 °F 74% 29.94 in 10.0 mi South 12.7 mph - N/A   Clear
1:55 AM 77.2 °F - 67.3 °F 71% 29.94 in 10.0 mi South 10.4 mph - N/A   Clear
2:15 AM 77.0 °F - 67.3 °F 72% 29.95 in 10.0 mi South 10.4 mph 16.1 mph N/A   Clear
2:35 AM 77.2 °F - 67.1 °F 71% 29.96 in 10.0 mi South 10.4 mph 16.1 mph N/A   Clear
2:55 AM 77.0 °F - 67.3 °F 72% 29.96 in 10.0 mi South 8.1 mph - N/A   Clear
3:15 AM 77.0 °F - 67.3 °F 72% 29.97 in 10.0 mi South 9.2 mph - N/A   Clear
3:35 AM 76.8 °F - 67.5 °F 73% 29.97 in 10.0 mi SSW 8.1 mph - N/A   Clear
3:55 AM 76.8 °F - 67.3 °F 72% 29.97 in 10.0 mi South 9.2 mph - N/A   Clear
4:15 AM 76.1 °F - 67.3 °F 74% 29.97 in 10.0 mi South 10.4 mph - N/A   Clear
4:35 AM 75.6 °F - 67.3 °F 75% 29.97 in 10.0 mi South 11.5 mph - N/A   Clear
4:55 AM 76.3 °F - 67.1 °F 73% 29.97 in 10.0 mi SSW 12.7 mph 17.3 mph N/A   Clear
5:15 AM 77.0 °F - 67.3 °F 72% 29.97 in 10.0 mi SSW 12.7 mph 20.7 mph N/A   Clear
5:35 AM 77.4 °F - 67.3 °F 71% 29.96 in 10.0 mi SSW 16.1 mph 24.2 mph N/A   Clear
5:55 AM 77.5 °F - 67.5 °F 71% 29.97 in 10.0 mi SSW 16.1 mph 26.5 mph N/A   Clear
6:15 AM 77.9 °F - 68.0 °F 71% 29.98 in 10.0 mi SSW 16.1 mph 23.0 mph N/A   Clear
6:35 AM 77.9 °F - 68.0 °F 71% 29.98 in 10.0 mi SSW 17.3 mph 23.0 mph N/A   Clear
6:55 AM 77.9 °F - 68.4 °F 72% 29.99 in 10.0 mi SSW 17.3 mph 21.9 mph N/A   Clear
7:35 AM 79.3 °F - 69.3 °F 71% 30.00 in 10.0 mi SW 19.6 mph 25.3 mph N/A   Clear
7:55 AM 80.1 °F 83.0 °F 69.6 °F 70% 30.01 in 10.0 mi SW 15.0 mph 24.2 mph N/A   Clear
8:15 AM 80.6 °F 83.9 °F 69.8 °F 70% 30.01 in 10.0 mi SW 18.4 mph 26.5 mph N/A   Clear
8:35 AM 81.9 °F 85.8 °F 70.2 °F 68% 30.01 in 10.0 mi SW 18.4 mph 27.6 mph N/A   Clear
8:55 AM 83.3 °F 87.4 °F 70.2 °F 64% 30.01 in 10.0 mi SW 21.9 mph 29.9 mph N/A   Clear
9:15 AM 82.4 °F 86.3 °F 69.8 °F 66% 30.01 in 10.0 mi SW 16.1 mph 27.6 mph N/A   Scattered Clouds
9:35 AM 82.4 °F 86.3 °F 69.8 °F 66% 30.01 in 10.0 mi SW 17.3 mph 24.2 mph N/A   Scattered Clouds
9:55 AM 82.8 °F 87.2 °F 70.7 °F 67% 30.01 in 10.0 mi WSW 15.0 mph 20.7 mph N/A   Scattered Clouds
10:15 AM 83.3 °F 87.6 °F 70.5 °F 65% 29.99 in 10.0 mi SW 12.7 mph 20.7 mph N/A   Scattered Clouds
10:35 AM 84.9 °F 89.7 °F 70.7 °F 62% 29.98 in 10.0 mi SW 17.3 mph - N/A   Scattered Clouds
10:55 AM 85.5 °F 89.8 °F 69.8 °F 59% 29.96 in 10.0 mi SSW 17.3 mph 25.3 mph N/A   Clear
11:15 AM 86.4 °F 91.1 °F 69.8 °F 58% 29.95 in 10.0 mi SSW 21.9 mph 27.6 mph N/A   Clear
11:35 AM 87.1 °F 91.3 °F 69.1 °F 55% 29.95 in 10.0 mi SW 21.9 mph 28.8 mph N/A   Clear
11:55 AM 87.8 °F 92.2 °F 69.1 °F 54% 29.94 in 10.0 mi SSW 16.1 mph 29.9 mph N/A   Clear
12:15 PM 88.7 °F 93.0 °F 69.3 °F 52% 29.93 in 10.0 mi SSW 23.0 mph 28.8 mph N/A   Clear
12:35 PM 89.6 °F 93.4 °F 68.0 °F 49% 29.93 in 10.0 mi SSW 23.0 mph 35.7 mph N/A   Clear
12:55 PM 89.4 °F 93.5 °F 68.7 °F 50% 29.93 in 10.0 mi SSW 26.5 mph 34.5 mph N/A   Clear
1:15 PM 89.8 °F 94.2 °F 68.7 °F 50% 29.93 in 10.0 mi SW 19.6 mph 31.1 mph N/A   Clear
1:35 PM 89.6 °F 94.7 °F 69.8 °F 52% 29.94 in 10.0 mi SW 21.9 mph 26.5 mph N/A   Clear
1:55 PM 89.6 °F 94.3 °F 69.4 °F 51% 29.94 in 10.0 mi SW 18.4 mph 28.8 mph N/A   Scattered Clouds
2:15 PM 88.9 °F 93.4 °F 69.3 °F 52% 29.95 in 10.0 mi SW 16.1 mph 25.3 mph N/A   Scattered Clouds
2:35 PM 89.4 °F 94.0 °F 69.1 °F 51% 29.95 in 10.0 mi WSW 19.6 mph 27.6 mph N/A   Scattered Clouds
2:55 PM 89.6 °F 94.7 °F 70.0 °F 52% 29.95 in 10.0 mi SW 15.0 mph 20.7 mph N/A   Clear
3:15 PM 90.1 °F 95.3 °F 69.6 °F 51% 29.94 in 10.0 mi WSW 17.3 mph 23.0 mph N/A   Scattered Clouds
3:35 PM 89.8 °F 94.6 °F 69.4 °F 51% 29.94 in 10.0 mi SW 18.4 mph 23.0 mph N/A   Scattered Clouds
3:55 PM 90.1 °F 95.3 °F 70.0 °F 51% 29.94 in 10.0 mi SW 16.1 mph 20.7 mph N/A   Scattered Clouds
4:15 PM 89.2 °F 94.1 °F 69.3 °F 52% 29.94 in 10.0 mi SSW 17.3 mph 23.0 mph N/A   Clear
4:35 PM 90.9 °F 95.3 °F 68.5 °F 48% 29.94 in 10.0 mi SW 15.0 mph 24.2 mph N/A   Clear
4:55 PM 90.9 °F 95.3 °F 68.5 °F 48% 29.94 in 10.0 mi SW 13.8 mph 24.2 mph N/A   Clear
5:15 PM 90.5 °F 94.6 °F 68.2 °F 48% 29.94 in 10.0 mi SW 18.4 mph - N/A   Clear
5:35 PM 90.1 °F 94.0 °F 68.2 °F 48% 29.94 in 10.0 mi SW 18.4 mph 24.2 mph N/A   Clear
5:55 PM 89.4 °F 94.0 °F 68.9 °F 51% 29.94 in 10.0 mi SSW 13.8 mph 21.9 mph N/A   Clear
6:15 PM 89.1 °F 92.9 °F 68.4 °F 50% 29.94 in 10.0 mi SSW 15.0 mph 21.9 mph N/A   Clear
6:35 PM 89.1 °F 93.7 °F 69.1 °F 52% 29.95 in 10.0 mi SW 15.0 mph 19.6 mph N/A   Clear
6:55 PM 88.3 °F 92.0 °F 68.0 °F 51% 29.95 in 10.0 mi SW 12.7 mph - N/A   Clear
7:15 PM 87.8 °F 91.8 °F 68.7 °F 53% 29.95 in 10.0 mi SSW 11.5 mph - N/A   Scattered Clouds
7:35 PM 86.7 °F 90.6 °F 68.9 °F 55% 29.95 in 10.0 mi SW 8.1 mph - N/A   Scattered Clouds
7:55 PM 86.0 °F 90.1 °F 69.3 °F 57% 29.95 in 10.0 mi SSW 8.1 mph - N/A   Clear
8:15 PM 84.7 °F 88.8 °F 69.3 °F 60% 29.96 in 10.0 mi SSW 9.2 mph - N/A   Clear
8:35 PM 84.0 °F 87.8 °F 69.1 °F 61% 29.96 in 10.0 mi SSW 6.9 mph - N/A   Clear
8:55 PM 82.9 °F 86.7 °F 69.4 °F 64% 29.96 in 10.0 mi SSW 5.8 mph - N/A   Clear
9:15 PM 82.4 °F 86.3 °F 69.8 °F 66% 29.96 in 10.0 mi SSW 5.8 mph - N/A   Clear
9:35 PM 81.0 °F 84.4 °F 69.8 °F 69% 29.97 in 10.0 mi SSW 5.8 mph - N/A   Clear
9:55 PM 82.0 °F 85.3 °F 68.9 °F 64% 29.98 in 10.0 mi SSW 8.1 mph - N/A   Clear
10:15 PM 82.2 °F 85.1 °F 68.2 °F 62% 29.98 in 10.0 mi SSW 8.1 mph - N/A   Clear
10:35 PM 81.3 °F 84.3 °F 68.4 °F 65% 29.98 in 10.0 mi SSW 5.8 mph - N/A   Clear
10:55 PM 80.2 °F 83.1 °F 68.7 °F 68% 29.99 in 10.0 mi South 4.6 mph - N/A   Clear
11:15 PM 78.6 °F - 68.9 °F 72% 29.99 in 10.0 mi South 4.6 mph - N/A   Clear
11:35 PM 79.0 °F - 68.2 °F 69% 29.99 in 10.0 mi SSW 6.9 mph - N/A   Clear
11:55 PM 79.2 °F - 68.0 °F 69% 30.00 in 10.0 mi South 3.5 mph - N/A   Clear